Location: Clarks Summit,Pa.
(41.5000°N, 75.6000°W)
Time: 01:47:51
(UTC-05:00)

BlueWalker 3 - Pass Details

Date: 02 December 2022
Orbit: 499 x 517 km, 53.2° (Epoch: 07 February)

Event Time Altitude Azimuth Distance (km) Brightness Sun altitude
Rises 17:18:36 0° 292° (WNW) 2,630 6.4 -8.5°
Reaches altitude 10° 17:21:35 10° 316° (NW) 1,739 5.0 -9.0°
Maximum altitude 17:23:58 15° 353° (N) 1,431 4.1 -9.4°
Drops below altitude 10° 17:26:21 10° 31° (NNE) 1,732 4.2 -9.9°
Enters shadow 17:26:39 - 34° (NE) 1,807 4.3 -9.9°
